�������ċp�F�����K�X���j�^�v���󋵏��
Date,Time,�ċp�F�����K�X���j�^(cps),����,����(m/s)
2023/03/21,00:00,1.5,��쐼,4.7
2023/03/21,00:10,1.5,��쐼,5.0
2023/03/21,00:20,1.5,��쐼,4.5
2023/03/21,00:30,1.5,��쐼,4.1
2023/03/21,00:40,1.5,��쐼,4.0
2023/03/21,00:50,1.5,��쐼,4.7
2023/03/21,01:00,1.5,��,4.9
2023/03/21,01:10,1.5,��쐼,4.8
2023/03/21,01:20,1.5,��쐼,5.0
2023/03/21,01:30,1.4,��,5.9
2023/03/21,01:40,1.5,��,5.7
2023/03/21,01:50,1.5,��,5.6
2023/03/21,02:00,1.6,��쐼,5.3
2023/03/21,02:10,1.4,��쐼,5.5
2023/03/21,02:20,1.5,��쐼,4.9
2023/03/21,02:30,1.5,��쐼,5.5
2023/03/21,02:40,1.5,��쐼,5.9
2023/03/21,02:50,1.5,��,5.9
2023/03/21,03:00,1.5,��,4.7
2023/03/21,03:10,1.5,��,3.4
2023/03/21,03:20,1.5,��,2.2
2023/03/21,03:30,1.5,��쓌,1.4
2023/03/21,03:40,1.5,�쓌,0.9
2023/03/21,03:50,1.5,��쓌,0.9
2023/03/21,04:00,1.5,�쓌,0.9
2023/03/21,04:10,1.5,�쓌,1.1
2023/03/21,04:20,1.4,��쓌,1.4
2023/03/21,04:30,1.5,-,CALM
2023/03/21,04:40,1.5,��,0.9
2023/03/21,04:50,1.5,��,1.2
2023/03/21,05:00,1.5,��,0.6
2023/03/21,05:10,1.4,��쓌,0.6
2023/03/21,05:20,1.6,��,0.6
2023/03/21,05:30,1.6,���k��,0.9
2023/03/21,05:40,1.6,��쓌,1.5
2023/03/21,05:50,1.5,��쓌,2.8
2023/03/21,06:00,1.5,��쓌,1.7
2023/03/21,06:10,1.5,��쓌,1.2
2023/03/21,06:20,1.5,��쓌,1.4
2023/03/21,06:30,1.5,-,CALM
2023/03/21,06:40,1.4,�쐼,0.9
2023/03/21,06:50,1.5,�쐼,0.9
2023/03/21,07:00,1.5,��쓌,0.9
2023/03/21,07:10,1.5,��쓌,2.2
2023/03/21,07:20,1.5,��,2.9
2023/03/21,07:30,1.5,��쓌,1.2
2023/03/21,07:40,1.5,��,1.7
2023/03/21,07:50,1.5,��,2.9
2023/03/21,08:00,1.5,��쓌,0.9
2023/03/21,08:10,1.5,�쓌,1.5
2023/03/21,08:20,1.4,�쓌,2.9
2023/03/21,08:30,1.5,�쓌,2.3
2023/03/21,08:40,1.5,��쓌,2.3
2023/03/21,08:50,1.5,�쓌,2.6
2023/03/21,09:00,1.5,�쓌,3.1
2023/03/21,09:10,1.5,���쓌,3.5
2023/03/21,09:20,1.5,���쓌,3.6
2023/03/21,09:30,1.4,�쓌,3.7
2023/03/21,09:40,1.4,�쓌,4.3
2023/03/21,09:50,1.5,���쓌,3.4
2023/03/21,10:00,1.4,�쓌,3.7
2023/03/21,10:10,1.5,�쓌,4.6
2023/03/21,10:20,1.5,��쓌,9.0
2023/03/21,10:30,1.4,��쓌,9.3
2023/03/21,10:40,1.4,��쓌,9.4
2023/03/21,10:50,1.4,��쓌,12.2
2023/03/21,11:00,1.6,��,9.5
2023/03/21,11:10,1.5,��쓌,10.8
2023/03/21,11:20,1.5,��쓌,12.7
2023/03/21,11:30,1.5,��쓌,11.6
2023/03/21,11:40,1.5,��쓌,12.4
2023/03/21,11:50,1.5,��쓌,11.4
2023/03/21,12:00,1.5,��,10.2
2023/03/21,12:10,1.5,��쓌,12.5
2023/03/21,12:20,1.5,��,9.6
2023/03/21,12:30,1.5,��쓌,10.7
2023/03/21,12:40,1.5,��쓌,11.9
2023/03/21,12:50,1.4,��쓌,10.9
2023/03/21,13:00,1.5,��쓌,12.4
2023/03/21,13:10,1.4,��쓌,10.7
2023/03/21,13:20,1.4,��쓌,9.5
2023/03/21,13:30,1.6,��,10.2
2023/03/21,13:40,1.5,��쓌,11.3
2023/03/21,13:50,1.5,��쓌,12.0
2023/03/21,14:00,1.5,��쓌,12.2
2023/03/21,14:10,1.5,��쓌,11.7
2023/03/21,14:20,1.5,��,11.3
2023/03/21,14:30,1.6,��,12.7
2023/03/21,14:40,1.5,��쓌,11.4
2023/03/21,14:50,1.5,��쓌,9.8
2023/03/21,15:00,1.5,��쓌,10.0
2023/03/21,15:10,1.5,��쓌,12.5
2023/03/21,15:20,1.5,��쓌,13.0
2023/03/21,15:30,1.5,��,10.9
2023/03/21,15:40,1.5,��쓌,9.6
2023/03/21,15:50,1.5,��,12.4
2023/03/21,16:00,1.4,��,11.3
2023/03/21,16:10,1.4,��쓌,10.2
2023/03/21,16:20,1.5,��,10.5
2023/03/21,16:30,1.5,��,9.6
2023/03/21,16:40,1.5,��,11.6
2023/03/21,16:50,1.4,��,9.5
2023/03/21,17:00,1.6,��,9.4
2023/03/21,17:10,1.5,��,8.5
2023/03/21,17:20,1.5,��쓌,7.7
2023/03/21,17:30,1.5,��,7.8
2023/03/21,17:40,1.5,��,6.7
2023/03/21,17:50,1.5,��,6.7
2023/03/21,18:00,1.5,��,6.9
2023/03/21,18:10,1.6,��,6.3
2023/03/21,18:20,1.5,��,6.6
2023/03/21,18:30,1.5,��,6.7
2023/03/21,18:40,1.5,��,6.6
2023/03/21,18:50,1.4,��,6.9
2023/03/21,19:00,1.5,��,7.4
2023/03/21,19:10,1.5,��,7.8
2023/03/21,19:20,1.4,��,7.1
2023/03/21,19:30,1.5,��,6.3
2023/03/21,19:40,1.4,��,6.3
2023/03/21,19:50,1.5,��,6.5
2023/03/21,20:00,1.5,��,5.8
2023/03/21,20:10,1.5,��,3.6
2023/03/21,20:20,1.5,��,3.8
2023/03/21,20:30,1.5,��,3.7
2023/03/21,20:40,1.4,��,4.0
2023/03/21,20:50,1.5,��,3.9
2023/03/21,21:00,1.4,��쐼,3.5
2023/03/21,21:10,1.4,��쐼,2.5
2023/03/21,21:20,1.5,��쐼,1.1
2023/03/21,21:30,1.5,��쓌,0.9
2023/03/21,21:40,1.5,��,1.2
2023/03/21,21:50,1.5,��쐼,1.9
2023/03/21,22:00,1.4,���쐼,1.5
2023/03/21,22:10,1.4,���쐼,2.2
2023/03/21,22:20,1.5,���쐼,1.9
2023/03/21,22:30,1.5,���k��,2.3
2023/03/21,22:40,1.6,��,2.2
2023/03/21,22:50,1.4,���k��,2.6
2023/03/21,23:00,1.5,�k��,2.8
2023/03/21,23:10,1.5,�k��,2.0
2023/03/21,23:20,1.5,�k��,2.5
2023/03/21,23:30,1.5,�k��,3.1
2023/03/21,23:40,1.4,�k��,3.4
2023/03/21,23:50,1.5,�k��,3.0
